CAPE
310 60 59 6 0 0 57 66 10 299 333 254 176 273 536 1121 1559 1330 1032 1317 974 1428 831 1345 661 602 796 806 533 803 739 114 506 0 0 626 681 832 1054 1250 1286 1342 1475 1682 1865 2047 2309 2737 2818 2557 2673 2718 2798 2776 2913 3240 3328 3326 3300 3229 3327 3297 3225 3217 3173 3153 3149 3046 2872 2906 3050 2826 2657 2402 2419 2505 2445 2418 2614 2771 2717 2700 2696 2634 2628 2587 2669 2739 2650 2706 2696 2869 3006 3009 2836 2523 2652
141 10 21 4 0 38 326 394 83 124 213 173 206 700 814 1852 1432 1102 987 1340 997 1179 880 730 910 652 714 1346 858 628 378 666 1192 626 494 629 704 982 1297 1275 1306 1454 1605 1715 1825 2040 2312 2794 2891 2775 2699 2810 2858 2888 3005 3309 3249 3329 3219 3134 3224 3160 3087 3063 3066 2974 2900 2885 2816 2893 2902 2588 2706 2657 2664 2480 2395 2436 2716 2614 2541 2650 2594 2449 2542 2616 2444 2576 2529 2614 2799 2838 2788 2801 2929 2867 2772
24 0 0 0 1 295 561 506 77 166 170 98 233 980 1586 1135 1154 1487 1454 1207 1484 931 890 510 816 772 661 806 723 545 251 719 621 673 694 706 806 1082 1205 1222 1407 1575 1753 1744 1897 2116 2341 2643 2903 2922 2798 2961 2743 2741 3039 3116 3172 3060 3034 3108 3103 3080 3039 2946 2906 2856 2921 2900 2571 2571 2458 2356 2675 2460 2518 2692 2629 2495 2744 2730 2621 2526 2250 2379 2520 2454 2686 2743 2694 2597 2634 2867 2907 2776 2611 2441 2367
0 0 0 0 106 17 238 370 163 128 156 216 147 1028 1394 1244 917 1984 1337 975 1230 981 732 319 669 715 718 472 475 392 392 505 689 607 733 801 869 1079 1210 1410 1772 1698 1824 1909 1952 2164 2347 2721 2982 2976 2838 2872 2816 2623 2827 2882 3007 3078 2928 3010 3044 2916 2646 2473 2799 2697 2690 2842 2651 2412 2531 2330 2483 2655 2624 2715 2790 2736 2444 2559 2498 2392 2383 2630 2580 2414 2763 2809 2618 2631 2608 2667 2526 2467 2564 2362 2379
276 574 768 3 214 139 183 290 467 220 222 196 275 1341 949 955 1382 1077 720 957 1300 806 349 638 882 406 578 363 356 392 686 692 732 760 707 812 980 1115 1308 1547 1669 1743 1830 1871 1962 2158 2410 2892 2978 2885 2870 2902 2937 2681 2706 3038 3038 2893 2874 2896 2826 2643 2731 2649 2472 2586 2852 2714 2657 2618 2502 2302 2232 2647 2688 2579 2477 2819 2690 2618 2592 2513 2596 2752 2590 2572 2509 2721 2582 2709 2790 2645 2556 2684 2639 2465 2577
485 425 822 816 122 902 221 184 209 195 230 668 364 877 1013 821 886 890 915 1443 694 547 543 640 726 270 492 644 569 582 561 800 813 764 862 896 972 1164 1425 1665 1589 1633 1791 1892 2007 2183 2505 2879 2811 2819 2841 2742 3002 3052 3138 3037 2830 2763 2812 2739 2569 2607 2634 2692 2264 2369 2670 2781 2697 2622 2541 2418 2694 2512 2476 2424 2577 2830 2745 2638 2576 2417 2444 2642 2598 2451 2474 2519 2550 2511 2431 2499 2644 2624 2593 2490 2588
217 590 762 642 582 542 192 340 181 249 371 732 89 630 397 628 692 681 670 361 670 1200 419 851 416 342 335 387 440 555 787 733 829 786 873 882 999 1257 1367 1427 1472 1644 1831 1944 2054 2254 2528 2819 2797 2883 2600 2644 2902 2831 2690 2912 2760 2812 2770 2685 2526 2498 2374 2359 2307 2253 2299 2735 2725 2570 2565 2465 2451 2378 2535 2423 2618 2709 2776 2697 2535 2482 2323 2362 2415 2341 2444 2424 2342 2406 2607 2579 2520 2435 2161 2448 2400
806 1069 761 54 406 486 283 323 273 238 630 901 1003 705 953 1101 1220 641 742 806 889 1025 370 423 430 295 332 466 579 566 683 823 718 722 805 980 1088 1193 1213 1268 1488 1702 1786 1879 2042 2255 2802 2724 2706 2583 2712 2751 3020 2996 3014 2778 2757 2767 2656 2503 2365 2367 2322 2187 2348 2427 2765 2767 2577 2472 2414 2301 2486 2481 2432 2482 2506 2655 2771 2651 2538 2604 2419 2341 2373 2367 2396 2485 2499 2485 2611 2648 2572 2224 2303 2581 2743
521 516 1257 647 251 542 223 209 180 476 734 1040 730 977 1318 1438 856 1091 1013 838 1031 1221 725 542 313 406 445 525 616 709 749 734 746 883 875 1038 1082 1094 1141 1320 1530 1559 1633 1798 2029 2438 2607 2663 2710 2755 2776 2913 2942 3036 2934 2801 2619 2547 2451 2369 2342 2357 2352 2112 2416 2348 2268 2457 2318 2299 2340 2286 2370 2186 2158 2570 2596 2645 2633 2631 2546 2555 2420 2532 2426 2477 2550 2545 2542 2512 2609 2557 2402 2235 2168 2494 2628
433 311 459 247 458 159 278 160 339 1312 1545 122 311 881 1136 1480 1603 1270 961 969 1132 1295 1073 332 230 472 609 642 661 714 785 782 790 839 917 925 975 1025 1250 1383 1384 1433 1595 1850 2216 2422 2520 2749 2785 2816 2864 2914 3005 2774 2714 2637 2435 2430 2367 2352 2339 2319 2359 2447 2233 2440 2340 2294 2115 2292 2382 2367 2356 2332 2412 2542 2654 2523 2546 2522 2472 2401 2068 2396 2350 2267 2525 2462 2460 2396 2565 2590 2397 2477 2575 2622 2620
602 732 1101 237 161 82 120 165 101 1091 802 128 851 1026 1227 1390 1602 1261 1040 1276 1574 1011 402 304 428 588 617 625 770 688 733 746 734 764 752 811 824 1088 1207 1200 1251 1429 1704 2038 2254 2330 2449 2581 2776 2865 2921 2870 2794 2673 2583 2368 2352 2385 2402 2399 2363 2348 2311 2226 2482 2384 2258 2239 2216 2293 2408 2423 2404 2324 2491 2463 2400 2454 2398 2459 2450 2219 2319 2386 2405 2367 2335 2306 2272 2475 2545 2503 2582 2412 2440 2674 2577
477 325 482 204 69 66 123 363 571 1160 817 526 208 1035 1076 1077 1400 1080 1089 777 945 1328 329 433 452 548 623 662 642 672 645 613 590 558 645 608 745 1016 1040 1056 1323 1652 1972 2073 2145 2240 2323 2566 2596 2749 2794 2729 2646 2489 2355 2401 2482 2539 2468 2415 2482 2410 2590 2503 2412 2302 2402 2330 2429 2350 2388 2550 2468 2406 2471 2418 2383 2463 2483 2516 2367 2313 2318 2334 2314 2300 2405 2404 2485 2567 2653 2627 2505 2517 2580 2611 2491
361 645 275 124 131 431 399 662 833 1004 874 630 850 986 1829 1768 1721 821 1082 1129 712 637 462 660 420 582 613 643 619 578 534 468 456 531 502 541 676 1001 1097 1217 1478 1704 1854 2066 2138 2157 2311 2350 2423 2562 2571 2608 2495 2384 2492 2567 2494 2519 2569 2577 2810 2870 2624 2489 2247 2344 2408 2466 2461 2580 2327 2246 2342 2398 2472 2427 2425 2531 2488 2348 2364 2457 2492 2464 2307 2355 2349 2427 2568 2619 2569 2632 2182 2239 2249 2659 2552
323 368 265 146 283 527 346 682 1207 872 892 533 979 1179 1257 1684 1628 1204 1192 1424 1306 1421 699 435 584 605 618 564 649 505 498 418 487 454 410 841 1122 1102 948 1034 1238 1535 1879 2049 2090 2184 2253 2281 2356 2336 2333 2418 2457 2569 2592 2516 2631 2593 2611 2350 2517 2791 2541 2378 2429 2589 2632 2604 2587 2378 2325 2363 2453 2517 2492 2418 2327 2332 2391 2285 2428 2499 2621 2398 2354 2310 2293 2396 2550 2611 2564 2424 2163 2132 2199 2485 2586
436 830 317 138 447 457 790 695 714 1031 687 991 852 729 878 1424 2154 1688 1563 1178 1087 2284 654 583 500 454 479 546 612 633 510 492 467 474 561 948 1021 879 817 1080 1441 1708 1872 1987 2099 2163 2188 2241 2236 2227 2361 2280 2279 2272 2356 2545 2457 2425 2316 2430 2734 2787 2531 2606 2696 2689 2716 2554 2549 2440 2368 2356 2506 2482 2458 2281 2313 2584 2473 2372 2484 2642 2545 2481 2263 2288 2270 2379 2471 2550 2764 2727 2304 2467 2484 2660 2650
774 856 445 557 349 381 815 765 995 996 970 1063 1032 1454 1184 1014 1354 969 1523 1530 1440 810 1054 573 477 1861 457 538 660 577 546 472 391 422 667 771 791 826 1121 1360 1484 1631 1833 1956 2045 2101 2158 2194 2256 2230 2250 2194 2113 2102 2192 2267 2407 2135 2239 2543 2582 2811 2775 2583 2633 2537 2493 2362 2337 1972 1978 2404 2478 2454 2579 2387 2395 2577 2454 2274 2479 2646 2554 2565 2426 2326 2368 2438 2564 2586 2774 2859 2623 2573 2417 2045 2017
938 550 588 510 303 548 828 676 792 467 1090 1396 1509 1120 1350 903 1278 1897 2177 1525 1779 1348 1100 534 627 601 476 536 600 517 467 430 401 481 494 618 876 1174 1198 1234 1406 1650 1705 1807 1883 1985 2061 2173 2182 2147 2131 1971 1895 2035 2122 2122 2364 2259 2280 2535 2712 2717 2205 2166 2247 2192 2342 2049 2290 2445 2252 2324 2402 2224 2447 2317 2452 2496 2234 2333 2400 2480 2663 2565 2617 2648 2665 2576 2637 2698 2709 2686 2658 2338 2255 2182 2040
724 779 500 327 241 321 630 574 833 822 1224 1028 1100 1149 1051 1420 982 1726 1310 1130 1218 1048 1031 550 631 401 364 469 496 489 482 408 358 412 432 715 1004 1046 1046 1219 1381 1373 1609 1680 1754 1861 2023 2047 2039 2021 1956 1794 1836 2002 2064 2026 2246 2308 2180 2470 2267 2157 2383 2300 2174 2241 2165 2223 2008 2263 2236 2634 2067 2074 2220 2307 2558 2571 2470 2476 2504 2536 2645 2611 2645 2683 2757 2766 2750 2744 2784 2700 2694 2392 2553 2271 2503
786 617 435 168 357 403 817 648 682 812 1151 846 1061 1563 1249 1163 1218 1443 1354 796 922 802 768 804 514 385 314 408 432 399 386 285 348 370 560 758 876 912 996 1143 1229 1371 1442 1531 1638 1790 1900 1959 1956 1894 1801 1763 1891 1971 1997 2104 1958 2138 2214 2294 2396 2500 2588 2795 2441 2364 2175 2149 2006 2283 2678 2185 1963 2242 2422 2616 2734 2432 2563 2466 2512 2523 2742 2637 2724 2718 2530 2619 2632 2675 2772 2820 2578 2542 2378 2121 2212
651 407 454 352 429 656 1400 1190 884 1128 957 861 1054 1562 1512 1430 1520 1777 1622 585 664 732 681 657 440 316 245 376 327 324 258 251 283 328 588 688 758 860 973 1044 1090 1224 1316 1390 1548 1626 1752 1862 1871 1769 1703 1749 1875 1926 1936 1969 2066 2162 2132 2192 2277 2238 2232 2262 2094 2043 2084 2109 2149 2133 2117 2143 1971 2091 2644 2551 2361 2434 2264 2401 2480 2617 2656 2690 2731 2807 2732 2860 2764 2726 2860 2902 3677 3166 2134 2275 1938
537 289 88 25 147 432 1012 1152 933 1111 1490 1293 1545 1410 1546 1519 1693 1659 1241 985 671 1350 800 543 364 269 252 241 216 254 284 172 63 335 505 566 661 805 915 951 958 1028 1208 1346 1441 1494 1645 1748 1734 1668 1649 1761 1831 1844 1870 1963 2088 2116 2068 2158 2153 2104 2059 1981 1958 1987 2060 2200 2271 2078 2016 2238 2004 2133 2167 2133 1972 2048 2095 2107 2416 2468 2526 2574 2894 2362 2444 2761 2821 2646 2816 3225 2510 2555 2295 2064 1934
464 287 100 171 737 549 1211 939 952 1189 1296 1736 1670 1246 1351 1881 1529 1888 1322 962 1000 1125 1187 958 456 338 253 269 156 214 172 91 112 270 400 466 593 753 787 816 893 990 1191 1308 1330 1465 1580 1630 1664 1651 1706 1764 1787 1812 1834 2157 2092 2046 2065 2057 2128 2049 1985 1882 1906 2004 2094 2402 2337 1996 2278 1982 1956 1876 1842 1918 1947 1954 2059 2186 2241 2300 2368 2493 2835 2109 2107 2393 2363 2371 2386 2497 2509 2457 2367 2140 1937
92 103 144 46 657 926 913 1168 1543 1353 1532 1708 1585 1854 1536 1461 1792 1675 1224 1263 1177 1463 1835 602 670 345 230 262 229 167 105 43 19 74 196 277 535 633 730 803 856 1029 1208 1246 1337 1487 1490 1569 1627 1651 1706 1738 1765 1756 1795 2162 2009 2006 2060 2090 2087 1989 1880 1824 1910 2030 2066 2322 2282 2391 2116 1960 1875 1736 1766 1846 1873 1910 1968 1984 2014 2018 2084 2218 2510 1924 2093 2161 2262 2244 2278 2315 2270 2097 2047 2048 1993
0 0 2 86 384 876 806 1235 1343 1162 1485 1537 1954 1282 1612 1722 1427 1273 1657 1472 1279 1470 1021 830 619 671 146 244 55 41 34 19 57 68 154 289 406 534 646 768 861 1064 1187 1286 1401 1499 1502 1531 1582 1634 1675 1708 1730 1691 1824 1994 1961 1984 2024 2582 2136 1932 1837 1762 1971 1993 2002 2155 2212 2391 2364 1914 1823 1792 1913 1862 1812 1802 1824 1828 1911 1948 1824 1968 2167 2130 2001 2032 1991 2154 2313 2332 2250 2112 2082 2015 1808
0 0 2 2 216 820 992 1090 952 1037 1382 1512 1299 1533 1421 1706 1615 1128 1051 913 882 1149 1396 482 776 466 130 138 48 9 9 7 31 56 117 157 250 315 322 668 869 1016 1192 1370 1478 1549 1509 1538 1536 1564 1651 1666 1603 1627 1825 1858 1908 1917 1986 2162 1921 2448 1795 1710 1922 1916 1817 1955 2057 2281 2390 1822 1682 1787 2006 1973 1872 1831 1808 1987 2068 2148 2074 2151 2161 2153 2125 1934 2059 2119 1989 1946 1944 1869 1881 1963 1795
0 0 0 0 375 924 1052 869 836 1324 1237 1189 1302 1518 1386 1613 1513 1350 1629 696 956 904 1222 535 484 296 214 63 50 1 1 1 18 58 128 153 215 227 243 571 794 956 1225 1386 1518 1558 1481 1508 1561 1533 1596 1571 1487 1600 1714 1745 1819 1816 1909 2041 1789 2652 1719 1714 1813 1703 1489 1710 1875 2073 2218 1765 1635 1790 2021 1939 1901 1844 1752 1779 1958 2178 2164 2107 1952 1992 1968 1895 2024 1628 1306 1390 1451 1695 1618 1370 1723
0 0 0 0 257 786 1164 1411 1311 1009 829 918 1288 994 1345 1504 1035 1174 1343 1562 1143 1091 1029 555 356 363 136 63 56 2 0 0 0 21 107 145 208 203 217 414 759 988 1220 1338 1482 1554 1477 1486 1516 1520 1489 1584 1465 1561 1594 1623 1680 1695 1828 1963 1735 2206 1635 1742 1665 1430 1203 1717 1854 2086 2266 2123 1862 1985 2019 1826 1881 1812 1632 1371 1452 1782 1664 1421 1322 1364 1501 2029 1578 1571 1734 1937 2176 2309 1738 1123 1513
0 0 0 0 512 724 1441 1321 1088 953 863 918 847 1089 1275 1543 1487 1439 750 1122 1317 1372 703 536 402 342 136 91 78 3 0 0 0 4 66 139 191 185 189 384 734 992 1188 1270 1368 1494 1455 1442 1482 1456 1476 1454 1456 1480 1468 1450 1504 1553 1720 1847 1776 1937 1642 1782 1647 1197 1026 1667 2174 1951 2028 2279 2776 2058 2075 1762 1740 1776 1755 1385 1172 998 962 1282 1472 1334 1692 2407 1859 1845 2292 2563 2709 1823 1564 1183 1336
0 0 0 0 567 880 1196 1158 1130 1048 974 880 1204 1266 1382 1366 967 1176 1034 1296 1353 1103 1044 560 418 321 118 181 105 29 0 0 0 0 36 129 164 169 195 338 599 944 1092 1197 1284 1588 1537 1440 1456 1455 1436 1480 1436 1358 1324 1364 1424 1467 1561 1586 1744 1784 1640 1781 1659 1080 834 1753 2164 1879 1803 1780 2467 2002 1858 1690 2257 1486 1799 1817 1312 1247 1251 1966 2026 2080 2404 2405 2487 3038 2586 2342 2764 1557 1555 1302 1098
0 0 0 0 100 696 888 1008 1122 954 978 1203 668 390 617 1002 1023 1179 1205 1447 983 793 670 545 470 347 112 151 127 110 19 14 11 0 10 82 110 112 196 350 548 798 991 1113 1353 1627 1567 1375 1469 1475 1488 1518 1370 1184 1223 1324 1288 1268 1311 1304 1556 1647 1638 1652 1214 720 1597 2067 1958 1625 1588 1707 1992 1729 1666 1707 1646 1786 1956 1770 1761 1946 2018 2206 2616 2420 2255 2062 2047 2169 2318 1721 2716 1606 1583 1668 927
0 0 0 0 0 376 828 789 687 1095 1143 1129 457 112 239 707 988 1010 1095 1251 838 1055 653 553 481 414 300 183 185 209 67 50 26 11 0 24 55 95 184 362 484 669 894 1086 1386 1632 1531 1288 1461 1486 1682 1515 1495 1132 1202 1234 1072 1050 1079 1037 1188 1276 1312 1127 651 1336 1888 2100 1846 1322 1230 1703 1904 2530 2058 1673 1686 1803 1993 2009 2051 2085 2375 2490 2281 2200 1937 1912 1947 2190 2709 1615 1556 1850 2100 2222 1328
0 0 0 0 0 0 900 755 746 1210 1154 1054 456 121 164 420 740 853 914 1104 936 1179 542 537 506 444 359 314 300 352 205 136 68 66 0 3 25 112 165 344 530 615 770 1028 1338 1584 1383 1263 1368 1388 1565 1440 1282 1108 1146 1041 970 1011 1058 1248 960 993 922 698 1144 1836 2181 2381 1632 1451 1570 2185 2602 2959 2356 1723 1675 2007 2020 1996 2212 2538 2596 2208 2026 2193 2039 1844 2127 2482 2821 1699 1422 1610 2326 1379 1006
0 0 0 0 0 0 692 794 803 1016 1106 985 614 211 254 284 518 735 821 1018 1060 1106 569 553 571 504 420 357 410 456 389 235 253 160 8 0 12 105 143 290 319 576 675 883 1189 1334 1122 1176 1274 1155 1416 1274 1118 1008 942 880 807 866 758 932 729 964 953 1140 1753 2227 2570 2305 2152 2205 2316 2910 2796 2869 2263 1802 1854 1996 1959 2113 2387 2392 2226 2015 2218 1823 1749 2153 2280 2814 2735 3356 2323 1810 2086 1094 735
0 0 0 0 0 0 0 162 822 963 985 906 727 299 219 343 431 1066 1033 1107 1097 1052 579 502 568 596 538 424 449 477 428 348 286 248 40 0 1 83 120 351 236 354 609 766 942 977 969 1047 1079 1017 1110 1093 1024 743 663 578 744 517 471 902 1072 1153 1351 1592 2008 2394 2439 2302 2410 2560 2780 3062 2741 2432 2253 2116 1762 1888 2105 2261 2495 2563 2559 2483 2167 1826 1732 2115 2553 2671 2703 2972 2261 2314 2010 1346 1132
0 0 0 0 0 0 0 132 765 949 834 811 695 459 295 485 587 1314 1312 1174 1105 962 634 552 528 613 563 519 446 546 414 408 413 262 112 0 0 36 113 214 168 265 472 693 814 848 942 1093 1159 1224 1065 1054 860 622 467 372 584 406 464 331 1004 1397 1584 1802 2080 2329 2290 2302 2434 2674 2930 2832 2783 2223 2472 2282 1976 2422 2029 2303 2657 2566 2494 2496 2318 2248 2196 3031 2860 2758 2961 2827 2712 2791 2810 2207 2093
0 0 0 0 0 0 0 0 648 838 639 578 542 391 314 552 739 1309 1299 1208 1106 885 672 641 583 521 550 564 512 564 554 525 520 299 123 10 0 9 85 110 106 196 298 630 734 725 845 1019 1140 1199 1216 1085 830 547 500 224 352 532 370 282 279 1150 1754 1918 1983 2092 2243 2270 2456 2767 2858 2625 2501 2534 2692 2184 2081 1790 2087 2459 2555 2461 2191 2147 2339 2380 2323 2541 2783 2711 2547 2600 2138 2262 2847 2741 2589
0 0 0 0 0 0 0 0 572 741 488 444 379 373 381 616 776 1255 1290 1130 1049 844 684 542 492 518 499 502 569 628 643 620 614 329 185 53 0 2 39 26 59 116 147 240 656 538 827 897 1081 1066 1101 989 772 512 447 192 288 562 294 183 110 544 1317 1738 1798 1952 2190 2288 2522 2696 2715 2514 2520 2881 2754 2398 2186 2986 2164 2454 2340 2314 2255 2096 2090 2116 2317 2932 2855 2413 2945 3519 3081 1939 1930 1986 1908
0 0 0 0 0 0 0 0 337 668 390 438 385 374 495 710 782 1196 1238 963 923 844 709 516 482 430 444 504 474 517 578 622 597 362 239 95 188 1 8 1 60 40 58 162 103 286 740 857 958 945 944 897 763 486 539 232 148 586 281 85 6 6 1072 1521 1684 1735 2151 2437 2513 2536 2676 2591 2724 2862 2790 2644 2813 2639 2221 2176 2312 2516 2390 2124 1858 1911 2521 3729 2948 2751 2579 1996 2541 2413 2117 2000 1788
0 0 0 0 0 0 0 0 47 498 365 388 442 393 563 791 963 1155 1143 994 905 872 765 557 522 527 484 440 548 537 545 604 599 463 304 146 42 0 1 0 3 10 4 95 46 247 502 796 843 728 857 831 766 516 528 243 170 522 182 17 0 57 1038 905 1324 1666 2211 2515 2538 2519 2688 2732 2910 2851 2872 3094 2830 2496 2253 1871 2042 2656 2354 2699 2537 2415 2975 3002 2549 2575 2470 2241 2166 2586 3081 2478 1396
0 0 0 0 0 0 0 0 0 318 488 483 456 376 480 807 1120 1265 1039 903 846 820 762 749 667 606 508 500 525 520 513 548 600 507 271 194 87 2 2 0 0 0 2 30 50 229 562 739 737 633 810 823 790 626 770 247 378 443 102 1 0 322 761 699 1352 1979 2272 2478 2559 2610 2672 2818 3086 3009 3096 3158 2665 2306 2184 1794 1904 2613 2501 2474 2371 2687 2670 2773 2233 1858 2097 2690 2404 1653 1577 1757 2668
0 0 0 0 0 0 0 0 0 0 0 79 383 752 864 876 1174 1368 1242 977 876 881 769 770 742 617 522 465 415 490 530 555 541 441 305 223 132 43 17 0 0 0 0 8 54 222 573 708 690 605 741 787 742 687 821 320 1108 431 278 48 84 302 473 914 1758 2102 2242 2404 2503 2667 2662 2845 3270 3202 3205 3089 2759 2123 1828 1650 1828 2396 2644 2450 2489 2690 2656 2592 2123 1954 1815 2328 2750 2098 1538 1560 1976
0 0 0 0 0 0 0 0 0 0 0 150 633 706 853 1043 1100 1266 1312 1196 1042 1043 1004 850 728 669 567 473 506 426 429 504 540 524 486 275 189 109 47 14 1 0 0 4 22 182 468 652 637 586 684 698 662 745 856 591 1035 342 257 92 55 140 244 1195 1806 2043 2164 2281 2462 2662 2682 2910 3307 3343 3220 3032 2862 2482 1970 2033 2178 2067 2640 2658 2542 2532 2509 2284 2070 1914 1734 2019 2312 2690 1778 1461 1642
0 0 0 0 0 0 0 0 0 0 136 351 489 577 672 884 1126 1144 1270 1216 1135 1060 979 881 853 964 920 782 551 656 490 470 490 489 340 288 284 313 125 52 25 0 0 1 22 110 392 575 472 618 663 658 686 823 1008 784 963 322 284 171 32 43 314 1041 1578 1924 2079 2167 2182 2628 2680 2899 3061 3196 3186 2857 2787 2779 2578 2440 2588 2455 2656 2863 2907 2433 2448 2269 2156 1941 1679 2093 2089 2797 1328 1094 1201
0 0 0 0 0 0 0 0 0 0 88 275 12 157 451 692 922 1092 1149 1247 1207 1140 1090 1057 938 1092 1139 989 676 718 593 525 547 502 484 420 369 359 258 137 136 3 0 0 16 39 370 373 372 581 645 721 760 936 1110 678 807 372 313 167 62 7 70 232 1247 1786 2005 2026 2087 2467 2594 2785 2871 2943 2867 2594 2496 2702 2938 2728 2607 2869 2879 2884 3033 2602 2529 2327 2314 2202 2092 2086 2323 2564 1945 1224 1282
0 0 0 0 0 0 0 0 0 0 0 0 0 4 27 101 536 871 996 1142 1151 1117 1088 1123 1087 1178 1240 1148 946 718 744 710 652 574 562 531 475 430 386 342 283 150 0 3 3 11 340 344 428 589 662 744 761 1030 1116 737 843 492 358 166 112 44 23 12 753 1595 1778 1978 1886 2303 2511 2527 2658 2558 2422 2300 2205 2477 2992 2838 2474 2705 3234 2822 3648 2725 2557 2375 2237 2288 2292 2377 2285 2340 2515 1818 987
0 0 0 0 0 0 0 0 0 0 0 0 0 0 0 0 21 648 963 1027 1102 1074 991 1122 1087 1224 1330 1258 1122 891 700 751 719 646 615 595 520 478 435 408 273 390 398 0 124 245 290 328 443 643 708 740 692 1034 1179 886 764 722 343 88 130 32 143 41 24 761 1576 1750 1774 2013 2188 2206 2281 2334 2254 2190 2157 2325 2647 2737 2380 2277 3087 2850 3378 2756 2510 2323 1948 1994 2238 2467 2273 2149 2558 2410 1683
0 0 0 0 0 0 0 0 0 0 0 0 0 0 0 0 7 649 920 1003 943 870 857 1009 1184 1226 1381 1326 1255 1128 853 703 753 724 677 639 585 509 454 411 430 427 418 429 446 437 274 306 429 602 768 848 787 976 1128 1040 737 636 305 74 142 51 36 6 14 36 1042 1517 1554 1867 2008 1936 2029 2198 2301 2009 2071 2277 2415 2607 2560 2265 2684 2856 3172 2750 2286 2041 1665 1703 2225 2470 2368 2480 2745 2423 3358
0 0 0 0 0 0 0 0 0 0 0 0 0 0 0 0 0 252 809 961 940 848 725 752 1077 1239 1458 1396 1254 1164 1070 882 694 643 728 683 620 520 478 445 448 454 449 460 459 457 182 331 425 505 698 894 864 863 1104 1050 887 530 242 38 91 65 33 6 15 116 30 1157 1374 1549 1812 1930 1930 1838 1970 2007 1842 2224 2187 2412 2592 2445 2539 2648 2676 2715 2341 2015 1802 1824 2330 2469 2431 2786 2890 2833 2923
0 0 0 0 0 0 0 0 0 0 0 0 0 0 0 0 0 73 667 803 821 798 751 831 975 1163 1446 1488 1359 1207 1076 907 782 687 685 712 679 629 590 546 505 490 494 496 517 507 496 374 412 447 588 831 969 788 992 1071 1062 675 178 11 24 90 37 1 0 94 5 26 1007 1282 1475 1656 1844 1449 1794 1862 1622 2169 2143 2203 2343 2425 2320 2430 2496 2506 2252 2006 1949 2135 2391 2602 2572 2519 2597 2710 2740
0 0 0 0 0 0 0 0 0 0 0 0 0 0 0 0 0 0 532 745 769 791 720 765 1016 1147 1387 1549 1408 1237 1049 953 859 718 694 719 686 651 616 587 555 549 558 546 543 550 527 472 410 441 517 635 1017 796 836 928 965 837 128 8 0 283 52 0 0 51 70 0 76 1103 1308 1408 1716 1530 1392 1907 1688 2035 2116 2201 2202 2329 2292 2264 2307 2352 2069 1912 1831 2217 2542 2647 2734 2656 2509 2681 2641
0 0 0 0 0 0 0 0 0 0 0 0 0 0 0 0 0 0 408 590 617 628 710 682 771 1133 1392 1552 1517 1304 1094 982 926 836 740 705 661 669 651 625 605 596 579 585 562 541 511 491 389 491 555 498 908 858 618 786 834 806 86 4 0 314 70 0 0 6 56 9 31 668 1185 1282 1495 1493 1226 1696 1652 1800 1998 2108 2097 2142 2214 2227 2223 2290 1913 2009 2040 2214 2543 2665 2720 2844 2764 2921 2818
0 0 0 0 0 0 0 0 0 0 0 0 0 0 0 0 0 0 7 308 422 518 645 558 588 761 1261 1495 1502 1421 1251 1004 933 930 859 783 723 696 651 638 634 609 604 586 537 499 498 496 423 485 578 584 685 889 568 532 574 717 54 4 0 167 327 2 0 0 0 4 32 353 994 1204 1297 1438 1256 1345 1692 1543 1914 2002 2046 1960 2022 2243 2190 2221 1913 1850 2231 2273 2423 2538 2565 2785 2924 3075 2890
0 0 0 0 0 0 0 0 0 0 0 0 0 0 0 0 0 0 0 0 6 398 440 517 496 512 1066 1360 1401 1372 1259 1039 833 822 836 824 755 732 687 650 634 618 581 535 504 502 512 539 551 568 580 691 681 854 559 407 427 347 81 4 1 38 298 31 0 0 0 0 1 228 653 1102 1224 1317 1390 1353 1433 1634 1697 1875 1920 1906 1885 2345 2223 2233 1992 1780 2039 2199 2361 2491 2422 2543 2762 2934 2878
0 0 0 0 0 0 0 0 0 0 0 0 0 0 0 0 0 0 0 0 0 19 335 452 452 485 884 1179 1270 1260 1206 1032 769 727 725 785 771 703 675 647 623 605 585 567 561 554 588 616 616 637 640 630 807 858 657 379 331 330 168 10 4 2 160 105 0 0 0 0 0 43 319 828 1175 1239 1367 1449 1414 1441 1591 2168 1782 1838 1772 2047 2346 2268 2108 2070 2046 2010 1994 2126 2261 2488 2587 2564 2528
0 0 0 0 0 0 0 0 0 0 0 0 0 0 0 0 0 0 0 0 0 4 94 223 377 705 890 976 1048 1075 1006 902 721 778 772 812 825 723 677 691 654 664 646 624 623 638 677 662 661 680 694 689 876 972 810 491 288 309 266 70 8 4 16 107 20 0 0 0 0 0 149 762 1114 1171 1270 1412 1453 1418 1329 1521 1770 1815 1774 1751 2296 2234 2140 2120 2205 2096 2166 2055 2070 2223 2299 2359 2283
0 0 0 0 0 0 0 0 0 0 0 0 0 0 0 0 0 0 0 0 0 0 102 185 402 842 954 942 921 878 818 729 742 869 864 859 863 808 679 653 673 705 718 703 700 815 885 944 781 731 766 771 820 1036 1050 742 381 294 288 165 18 9 7 13 21 8 0 0 0 0 0 205 459 1084 1195 1365 1414 1374 1317 1320 1642 1733 1751 1689 2037 2229 2158 2123 2265 2169 2156 2239 2225 2242 2190 2215 2370
0 0 0 0 0 0 0 0 0 0 0 0 0 0 0 48 187 188 163 99 42 0 27 142 392 799 950 957 907 808 729 664 729 932 980 956 915 862 768 660 640 690 746 759 866 942 968 1042 1069 824 842 836 811 967 1082 917 631 326 306 240 88 9 7 0 0 0 15 1 0 0 0 0 295 516 820 796 959 1106 1169 1306 1600 1647 1679 1726 1869 2199 2218 2156 2232 2301 2210 2254 2305 2350 2294 2185 2220
0 0 0 0 0 0 0 0 0 0 0 0 0 0 0 184 309 241 200 122 44 0 1 68 298 703 895 928 914 825 744 663 727 940 1064 1063 1011 933 830 724 587 584 776 814 941 1008 1049 1100 1221 1116 914 886 908 894 1096 1082 837 578 302 270 208 34 5 5 0 0 0 26 30 6 0 0 47 292 562 759 526 470 532 860 1592 1637 1648 1738 1823 2073 2270 2227 2180 2300 2386 2332 2300 2372 2400 2284 2246
Wind_Speed
5 nan nan nan nan nan nan nan nan 4 4 4 4 10 10 13 8 4 8 9 12 15 13 13 4 5 8 9 5 6 10 8 8 nan nan 8 10 14 11 11 8 6 5 5 6 6 4 4 5 8 7 7 7 7 7 6 6 5 5 4 3 2 2 3 2 2 1 0 2 4 4 4 4 4 3 3 2 2 3 3 2 3 2 3 4 5 6 5 5 4 4 5 5 6 7 7 8
7 nan nan nan nan nan 3 4 nan 5 6 5 6 10 9 11 8 3 7 8 9 12 5 9 10 8 11 13 8 3 9 9 8 6 3 8 9 9 12 12 10 8 5 5 6 6 5 4 5 6 7 6 6 6 6 5 6 5 5 4 4 3 4 4 3 3 2 2 1 1 4 5 4 3 2 2 1 1 1 2 3 3 3 3 5 5 6 5 4 3 3 3 4 5 7 8 9
nan nan nan nan nan 5 7 5 nan 7 7 nan 6 11 9 10 7 4 7 11 10 7 1 5 5 6 11 10 12 9 8 4 7 5 5 11 11 10 13 12 9 7 6 6 6 5 5 6 5 6 7 7 6 6 5 5 5 5 5 4 4 5 5 5 4 4 5 4 3 2 1 3 4 3 1 1 2 2 2 3 3 3 4 4 4 6 6 5 3 2 2 3 3 5 6 8 9
nan nan nan nan 10 nan 9 8 6 7 7 6 4 10 7 6 4 8 14 14 16 7 4 5 3 10 6 8 6 7 2 4 4 11 10 13 10 13 13 12 8 5 4 6 5 5 6 6 6 6 6 7 7 7 6 5 5 4 4 4 5 5 4 3 6 7 6 4 3 4 4 0 1 1 1 2 4 3 3 4 4 4 4 5 5 5 6 5 3 3 2 3 4 5 6 8 9
12 9 10 nan 10 9 10 7 6 7 6 8 7 7 6 0 2 12 14 16 14 10 6 5 5 8 12 6 8 6 7 3 5 4 9 7 11 13 12 10 7 6 5 5 5 5 6 7 7 7 7 8 7 7 6 5 4 4 4 4 5 5 6 7 8 7 6 5 4 4 3 4 2 1 2 3 5 4 4 4 4 5 4 4 5 6 5 5 4 3 3 3 4 5 6 8 9
11 11 10 10 11 9 10 6 5 6 6 12 7 4 5 4 11 11 11 15 12 10 9 11 7 8 5 6 4 4 12 8 9 5 11 13 14 15 13 9 7 5 5 5 6 5 6 9 7 7 7 8 7 6 6 6 5 4 4 4 5 4 5 8 8 7 7 6 5 5 4 3 2 3 3 3 5 5 4 5 5 5 5 5 5 5 4 4 4 3 3 3 4 5 6 8 10
10 11 10 8 9 8 6 6 3 6 5 15 nan 3 4 10 8 9 12 12 12 9 6 7 5 3 4 1 6 3 2 8 9 9 10 16 14 14 13 8 6 6 6 6 6 6 7 10 9 8 8 7 7 7 6 5 5 4 4 5 5 7 9 7 6 6 6 6 6 6 5 4 3 2 3 4 5 5 5 5 5 5 5 5 3 3 3 3 3 3 3 4 5 5 6 8 10
8 8 7 nan 7 7 5 5 2 9 7 16 9 2 6 11 11 13 12 12 8 7 6 8 3 5 3 5 2 5 9 4 10 12 17 15 13 13 12 8 6 5 6 6 6 7 10 10 9 9 8 8 7 7 6 5 5 4 4 5 5 6 7 6 6 5 6 7 7 7 5 5 3 3 3 4 5 5 4 5 5 5 4 4 2 2 2 2 2 3 4 5 5 5 7 8 8
6 7 6 7 4 4 4 5 4 9 9 13 8 6 11 13 9 8 11 12 9 11 8 5 5 8 4 4 1 4 5 11 13 16 17 16 14 12 8 8 7 6 6 6 7 7 7 9 9 8 8 7 7 6 5 5 5 5 5 5 6 6 6 5 4 6 6 6 7 6 6 5 5 5 5 5 4 4 5 5 6 5 5 4 3 2 2 3 3 3 5 5 6 7 7 8 8
6 6 6 5 6 2 5 5 8 8 9 13 5 5 11 14 11 13 10 10 9 8 9 4 4 10 5 3 6 5 7 14 16 15 15 16 14 10 8 7 8 10 7 6 6 7 7 10 9 8 8 7 6 5 6 6 6 5 5 6 7 7 4 4 6 4 4 5 6 6 6 6 6 5 5 5 5 4 4 5 6 6 5 3 2 3 3 4 3 3 4 5 6 6 7 7 7
7 7 7 6 5 nan 7 5 7 6 9 9 5 10 14 15 11 11 13 12 10 9 4 10 9 10 6 1 3 5 14 16 17 19 17 18 13 9 6 5 6 8 8 7 7 7 7 8 9 8 7 6 6 6 6 6 6 6 6 7 7 4 5 6 4 4 5 5 5 6 6 7 6 6 6 5 5 5 5 5 5 5 5 4 3 3 4 4 5 4 4 5 6 6 6 6 7
7 7 8 7 nan nan 6 5 5 4 11 7 6 9 17 12 11 10 8 7 7 12 4 2 3 7 5 4 4 10 15 15 16 18 19 15 10 9 6 3 5 6 7 7 6 6 7 8 8 8 8 7 7 6 5 5 6 6 7 7 6 5 5 4 5 5 6 5 6 6 7 7 7 7 6 5 5 5 5 4 4 4 4 5 5 5 5 5 5 4 4 5 5 5 5 6 7
9 9 10 7 5 8 6 5 7 3 6 9 9 10 16 14 15 12 9 10 8 5 3 6 11 1 3 3 5 10 14 15 17 19 17 13 11 7 4 4 5 6 6 6 6 6 6 8 9 9 7 8 6 5 5 6 6 7 8 7 6 6 6 6 6 6 6 6 7 7 8 9 8 7 6 7 7 6 5 5 4 4 5 5 6 6 6 5 4 5 5 6 6 5 5 5 7
9 7 10 6 6 8 5 5 6 1 3 4 10 10 16 17 18 19 17 12 13 10 6 8 4 4 8 5 7 9 11 17 18 16 13 13 11 8 7 4 6 6 6 6 6 6 6 8 9 9 8 8 8 5 5 6 6 7 8 6 6 6 6 6 6 7 7 7 8 8 9 9 9 8 8 8 8 8 7 7 7 6 6 7 7 7 7 6 6 6 6 8 7 5 6 6 7
7 9 10 8 5 6 5 5 3 4 1 4 6 10 11 15 18 15 18 17 14 12 6 8 4 5 6 12 9 11 13 17 16 15 14 13 13 11 9 5 5 5 6 6 5 5 6 8 9 9 9 9 9 9 10 7 7 7 7 6 5 6 8 8 8 8 8 9 9 10 10 10 10 10 10 10 10 10 10 9 9 9 9 9 9 9 8 8 8 7 8 10 9 8 6 6 7
9 11 11 10 5 5 3 6 4 4 3 5 8 8 8 14 16 8 9 8 14 15 10 4 4 8 9 5 11 13 15 14 15 15 14 15 12 10 7 5 4 5 5 5 5 5 6 8 10 9 9 10 10 9 9 10 7 6 6 6 7 8 9 9 9 10 10 10 10 10 9 9 10 10 11 10 10 10 11 12 11 11 11 10 10 9 10 10 10 10 10 10 9 8 7 5 6
12 12 11 10 6 6 3 3 4 3 8 2 2 6 7 6 9 11 15 15 15 15 13 3 8 4 7 7 13 13 13 14 14 17 14 12 10 7 4 2 3 4 5 5 5 4 6 7 9 10 10 10 9 9 10 11 10 7 7 8 9 10 9 11 10 9 9 10 9 9 8 10 12 12 11 12 11 12 13 13 12 11 11 11 10 10 10 11 12 11 11 10 9 9 7 6 6
13 11 12 10 5 5 2 4 3 6 9 7 6 6 4 4 5 11 14 19 19 17 14 13 16 4 3 9 11 13 14 15 17 18 14 11 10 9 6 4 5 6 6 5 4 3 4 8 9 9 11 10 10 11 11 12 12 10 12 12 12 11 10 9 10 11 11 12 8 9 12 12 13 14 14 12 14 14 14 14 13 12 12 11 11 10 11 12 13 13 11 10 10 8 6 11 11
11 11 12 8 8 2 5 3 4 6 9 9 7 6 6 5 7 9 9 14 14 10 10 7 3 0 8 10 14 13 13 15 17 16 16 14 12 13 9 5 5 5 5 4 4 3 5 7 10 9 10 10 10 11 11 12 11 13 12 13 13 13 12 12 13 11 13 13 12 12 13 14 15 15 15 14 15 13 15 14 14 13 13 12 12 12 12 13 14 14 12 11 11 6 8 10 10
8 12 9 9 8 8 6 6 5 5 12 13 7 2 4 7 8 10 10 7 8 8 4 7 2 7 11 13 14 13 14 14 14 16 16 13 13 13 11 8 5 5 5 5 5 2 4 7 9 9 9 9 10 11 11 11 12 13 13 14 13 13 14 12 12 12 12 12 12 12 13 15 15 16 15 14 13 14 14 14 14 14 14 14 13 13 13 14 14 13 12 12 10 10 8 9 10
12 10 nan nan 8 8 3 8 7 10 10 13 9 5 3 8 9 6 3 6 3 6 6 7 8 10 12 15 14 13 15 14 nan 15 15 13 12 10 10 8 6 4 4 3 4 4 3 5 7 9 8 8 10 11 11 12 13 14 14 13 13 13 13 12 12 13 13 12 13 13 14 15 16 17 16 15 15 14 14 14 14 15 15 15 13 14 14 14 13 14 13 11 11 11 11 10 10
15 3 3 11 14 9 6 7 6 7 7 11 11 11 3 9 7 1 6 5 4 2 3 3 6 10 14 18 14 12 14 nan 13 15 16 14 13 12 9 6 3 2 3 3 6 4 3 4 6 8 8 9 11 11 11 12 13 14 13 13 12 13 12 12 12 13 14 14 14 15 15 15 16 15 15 15 15 14 14 14 14 15 16 16 15 14 15 14 13 13 13 13 12 12 13 11 11
nan 9 7 nan 11 14 7 8 6 10 8 11 12 9 7 5 7 4 1 8 12 13 12 3 7 7 11 13 13 14 14 nan nan nan 16 14 12 12 11 7 5 3 2 4 5 4 3 3 4 5 8 9 11 13 13 13 13 13 12 12 11 12 11 11 12 12 14 14 14 15 14 15 16 15 16 16 16 16 16 16 16 15 16 16 16 15 16 15 13 13 14 15 15 14 15 13 13
nan nan nan nan 10 15 10 8 11 9 14 12 10 11 10 9 6 4 7 15 13 12 11 1 5 1 10 13 nan nan nan nan nan nan 13 14 12 11 10 9 5 2 2 4 4 5 4 3 3 4 7 10 12 13 13 13 13 12 11 11 10 11 10 12 12 12 13 14 15 15 15 15 14 15 16 16 17 17 17 16 15 15 16 17 17 16 16 15 15 15 16 17 19 19 18 17 16
nan nan nan nan 10 17 11 7 7 10 11 11 11 10 12 9 3 4 7 6 4 5 4 3 3 3 8 12 nan nan nan nan nan nan 9 9 9 9 7 5 5 3 3 5 3 4 5 1 2 3 7 9 11 12 12 13 13 12 11 10 10 11 10 12 12 12 14 15 15 15 15 14 14 14 15 16 16 16 16 15 14 14 14 16 15 16 16 16 17 17 18 20 21 23 23 20 18
nan nan nan nan 16 16 14 9 5 5 6 11 13 9 9 6 5 7 1 2 5 0 3 5 3 5 10 nan nan nan nan nan nan nan 11 9 10 10 7 6 5 4 3 4 4 3 3 1 2 4 7 9 10 11 12 12 13 12 11 10 10 10 11 11 12 12 14 15 15 16 15 13 13 13 14 15 14 15 15 14 13 14 14 15 15 17 17 16 17 18 20 22 23 23 22 21 18
nan nan nan nan 16 19 17 13 5 1 5 9 11 10 8 8 10 6 6 6 7 3 3 6 8 10 12 nan nan nan nan nan nan nan 9 8 9 8 6 6 5 3 2 3 3 3 2 1 4 6 7 10 11 11 11 12 12 12 11 10 10 10 11 11 11 12 13 14 15 15 13 12 12 12 13 14 14 13 14 13 14 14 15 16 16 18 18 18 18 19 21 22 22 22 21 19 18
nan nan nan nan 19 21 18 15 10 8 5 5 13 9 6 8 6 8 7 9 8 5 5 7 13 10 10 nan nan nan nan nan nan nan nan 11 7 7 7 6 5 3 3 4 2 1 3 3 4 6 7 10 11 11 11 11 12 12 11 10 10 10 10 11 12 11 12 14 15 14 12 11 11 11 11 12 13 13 13 13 14 14 16 16 16 18 18 18 18 19 20 20 20 20 19 19 19
nan nan nan nan 23 21 15 16 12 12 10 11 17 15 5 6 9 9 9 7 9 6 8 9 17 12 11 11 6 nan nan nan nan nan nan 10 7 6 7 6 5 3 0 3 3 3 4 3 5 6 8 12 11 10 10 11 11 11 10 11 10 10 10 11 12 12 11 12 13 13 12 11 10 9 10 11 12 12 12 13 13 14 15 15 15 16 16 17 18 20 21 19 17 17 15 19 19
nan nan nan nan nan 16 10 14 13 11 12 18 16 10 3 8 8 7 9 9 11 9 8 10 10 11 11 10 7 8 nan nan nan nan nan nan 9 8 8 6 5 1 2 2 3 3 3 3 6 8 9 12 11 10 10 10 11 10 10 11 9 9 10 11 12 12 11 11 12 12 11 11 9 8 9 11 11 11 11 11 12 14 14 13 14 13 13 15 17 17 18 15 15 14 15 16 18
nan nan nan nan nan 11 14 13 12 11 10 15 8 10 1 6 6 6 8 11 14 10 12 11 9 11 12 10 9 9 nan nan nan nan nan nan nan nan 9 7 5 1 2 3 6 4 4 3 6 8 9 12 12 11 8 9 10 10 9 10 9 9 10 10 11 11 11 10 10 11 11 10 9 8 8 9 9 9 8 8 10 12 12 12 11 13 13 15 15 17 17 14 16 15 16 16 14
nan nan nan nan nan nan 14 12 12 13 7 4 10 10 5 7 7 9 10 11 11 9 14 12 10 8 11 10 10 9 10 10 nan nan nan nan nan 10 10 8 6 3 3 4 5 4 4 2 5 6 8 12 14 10 9 9 10 10 10 9 8 9 9 9 9 10 10 8 8 9 10 9 8 8 8 8 8 7 6 7 10 11 11 11 11 12 13 13 14 15 16 14 15 17 16 15 13
nan nan nan nan nan nan 13 8 7 15 14 4 1 8 10 6 2 7 11 13 12 9 13 14 11 11 9 9 9 8 9 8 9 9 nan nan nan 10 10 9 6 5 3 4 5 5 2 1 5 5 6 11 14 10 9 10 10 9 9 9 7 8 8 8 9 9 9 8 7 7 8 7 7 8 7 7 6 6 7 7 10 10 10 10 10 10 11 13 12 12 14 14 14 16 16 16 16
nan nan nan nan nan nan nan 10 8 13 18 2 6 8 2 4 7 8 12 12 12 10 12 14 13 12 11 10 10 10 9 8 8 8 nan nan nan nan 11 9 7 5 3 5 5 6 4 2 8 7 8 12 14 10 10 9 10 9 9 8 8 7 6 7 7 7 7 7 6 6 6 6 7 7 6 6 6 7 8 9 9 9 9 9 9 10 11 12 11 11 12 14 12 13 15 16 17
nan nan nan nan nan nan nan 12 9 14 13 9 7 9 6 4 7 10 13 12 13 13 13 13 12 13 12 11 10 11 9 8 7 6 4 nan nan nan 11 11 8 5 3 5 5 2 2 2 9 8 10 13 13 11 11 10 10 10 11 8 7 6 7 7 7 6 6 5 6 5 5 5 5 6 6 5 5 7 8 9 9 10 9 9 9 10 10 10 10 10 10 13 14 13 14 16 18
nan nan nan nan nan nan nan nan 11 17 12 5 3 7 5 5 10 12 14 15 14 13 13 11 11 12 12 11 11 10 9 9 7 7 3 nan nan nan nan 9 9 5 4 4 4 2 2 3 8 10 14 14 14 12 11 10 10 9 10 11 8 8 6 7 7 5 4 4 4 4 5 5 5 5 5 5 5 7 8 9 9 9 9 9 10 10 10 9 8 8 10 11 12 13 13 14 14
nan nan nan nan nan nan nan nan 10 11 12 8 7 3 5 12 17 18 18 13 11 11 12 12 12 13 11 11 12 12 11 10 8 8 4 nan nan nan nan nan nan 7 5 5 4 3 1 3 6 8 15 15 13 12 12 10 10 9 11 10 9 8 7 8 7 6 4 4 3 4 5 5 4 4 4 6 7 7 8 9 9 10 10 10 11 12 11 10 10 10 10 10 10 10 11 12 11
nan nan nan nan nan nan nan nan 13 9 10 5 3 5 6 13 16 18 16 14 14 13 12 12 13 14 13 14 13 13 11 9 9 7 5 nan 9 nan nan nan nan nan nan 5 5 3 1 3 4 8 16 15 13 11 11 10 10 8 8 nan nan nan 7 7 8 7 5 4 4 4 4 4 3 3 5 7 9 8 7 8 9 10 10 11 12 12 11 10 10 10 9 10 10 9 10 10 10
nan nan nan nan nan nan nan nan nan 9 8 9 12 12 8 11 16 16 17 19 15 13 14 14 13 13 12 12 13 12 11 10 10 9 8 5 nan nan nan nan nan nan nan nan nan 5 1 3 5 9 14 14 13 11 11 9 10 8 7 nan nan nan 10 6 7 7 5 4 4 4 4 4 4 5 7 9 9 9 8 8 10 11 10 10 10 12 11 10 10 10 10 9 9 9 9 9 8
nan nan nan nan nan nan nan nan nan 15 16 9 9 11 14 8 9 12 15 18 13 11 11 11 11 13 12 12 12 13 13 11 11 11 9 6 nan nan nan nan nan nan nan nan nan 6 2 5 6 10 13 13 13 11 10 10 9 8 7 nan nan 6 7 5 5 5 4 4 4 4 5 4 5 6 8 9 10 10 9 9 10 10 10 10 10 10 11 10 10 11 10 9 8 8 8 8 8
nan nan nan nan nan nan nan nan nan nan nan nan 21 25 21 11 9 6 10 13 11 10 11 10 9 9 9 8 9 14 15 14 13 11 8 6 9 nan nan nan nan nan nan nan nan 6 4 3 6 9 12 12 12 10 8 9 9 8 8 nan nan 8 8 3 4 4 4 5 4 4 5 5 5 6 8 9 9 9 9 9 9 10 9 8 9 10 11 12 11 11 10 8 7 6 7 8 8
nan nan nan nan nan nan nan nan nan nan nan 17 25 26 16 9 5 7 14 14 11 11 12 12 11 9 9 8 11 12 12 13 15 13 10 8 8 9 nan nan nan nan nan nan nan 7 6 5 7 10 12 12 10 9 8 7 7 6 7 nan nan 7 6 2 4 4 4 4 5 5 5 5 5 6 8 9 9 8 9 9 8 8 8 8 9 10 10 9 10 10 11 8 8 8 6 6 7
nan nan nan nan nan nan nan nan nan nan 25 23 28 23 20 19 11 7 11 12 12 10 10 11 11 9 10 10 12 12 12 12 11 10 9 8 8 10 10 nan nan nan nan nan nan 9 8 6 7 9 12 12 10 9 8 7 7 8 6 5 nan nan 5 7 5 3 3 5 5 5 5 6 6 5 7 8 9 9 8 8 6 7 8 9 9 8 9 11 10 10 9 8 10 7 5 6 7
nan nan nan nan nan nan nan nan nan nan nan 24 nan 21 25 24 13 9 10 10 10 8 8 10 10 11 12 12 12 10 10 12 11 11 9 8 8 11 12 11 10 nan nan nan nan nan 9 7 7 9 12 11 10 9 8 7 6 8 7 7 nan nan nan 6 5 4 3 3 4 5 5 6 6 6 5 7 7 7 7 7 5 5 7 9 8 9 10 10 10 9 9 9 8 9 8 7 8
nan nan nan nan nan nan nan nan nan nan nan nan nan nan nan 24 17 10 13 12 8 3 11 13 12 12 12 13 12 9 8 10 10 9 9 8 8 10 10 10 9 12 nan nan nan nan 10 8 8 10 11 10 10 8 7 7 7 7 6 6 6 nan nan nan 6 4 3 3 3 6 5 5 5 5 5 5 5 5 5 5 4 4 6 7 8 9 9 9 9 9 9 9 9 9 8 7 5
nan nan nan nan nan nan nan nan nan nan nan nan nan nan nan nan nan 24 17 12 5 7 12 15 14 13 11 11 10 9 8 7 6 9 11 11 10 10 10 11 10 10 10 nan 10 13 12 10 9 9 10 11 10 8 7 6 6 6 6 nan 6 nan 8 nan nan 4 3 3 2 4 5 5 5 5 5 5 4 4 4 4 3 4 5 7 8 9 9 9 9 9 9 9 9 9 9 7 7
nan nan nan nan nan nan nan nan nan nan nan nan nan nan nan nan nan 26 24 11 10 10 2 1 6 7 8 8 9 9 9 9 8 9 12 12 11 11 12 12 11 10 8 9 9 12 13 11 9 8 9 11 10 8 7 5 5 5 4 nan 6 nan nan nan nan nan 5 4 2 3 4 4 5 4 5 5 4 3 3 3 3 4 4 6 7 8 10 11 11 10 10 9 9 9 10 8 7
nan nan nan nan nan nan nan nan nan nan nan nan nan nan nan nan nan 24 17 12 14 12 9 7 8 11 10 9 9 9 9 10 10 11 11 13 13 11 12 12 12 11 10 11 8 10 12 12 11 9 10 11 10 8 7 6 6 5 5 nan nan nan nan nan nan 4 nan 1 2 2 3 4 5 5 5 4 5 3 2 3 4 3 4 6 8 9 11 12 12 11 11 11 10 10 8 8 8
nan nan nan nan nan nan nan nan nan nan nan nan nan nan nan nan nan nan 14 10 6 9 9 8 10 11 10 9 9 8 7 8 10 11 11 13 12 12 13 12 11 11 10 12 10 9 9 12 12 10 8 10 10 8 6 6 6 5 4 nan nan nan nan nan nan nan nan nan 2 2 3 3 4 4 4 4 4 3 2 3 4 4 5 6 8 8 11 12 12 12 12 12 11 10 9 9 9
nan nan nan nan nan nan nan nan nan nan nan nan nan nan nan nan nan nan 19 11 9 13 10 9 11 13 12 9 7 7 7 7 8 10 11 11 11 11 12 11 10 9 10 11 10 9 8 9 11 11 8 9 11 9 7 7 5 5 6 nan nan 5 nan nan nan nan nan nan nan 2 1 1 2 2 3 3 3 3 3 3 4 5 6 8 9 9 11 12 12 12 13 13 12 11 8 9 10
nan nan nan nan nan nan nan nan nan nan nan nan nan nan nan nan nan nan 17 14 14 14 11 12 13 11 12 11 8 6 7 7 8 9 9 9 10 11 11 11 9 8 10 11 10 10 8 8 10 10 10 8 10 9 9 7 7 6 nan nan nan 7 nan nan nan nan nan nan nan 3 2 3 2 3 3 4 4 4 3 4 4 5 7 9 10 11 10 11 13 13 12 13 12 10 9 9 10
nan nan nan nan nan nan nan nan nan nan nan nan nan nan nan nan nan nan nan 18 19 16 12 15 15 13 14 14 12 9 7 8 8 8 8 8 10 11 10 9 9 9 12 11 12 11 9 8 9 10 10 8 9 10 10 9 9 8 nan nan nan 7 6 nan nan nan nan nan nan 4 3 3 3 3 4 5 5 4 4 4 4 5 6 8 10 11 12 11 12 12 12 11 12 9 9 9 10
nan nan nan nan nan nan nan nan nan nan nan nan nan nan nan nan nan nan nan nan nan 17 16 16 14 16 19 15 14 12 8 7 7 8 8 9 10 11 10 10 9 9 11 12 13 13 12 10 9 9 11 10 8 9 10 11 11 10 nan nan nan nan 6 nan nan nan nan nan nan 6 5 3 3 4 4 6 5 5 4 4 4 5 6 7 9 11 12 11 11 10 9 10 11 10 9 11 10
nan nan nan nan nan nan nan nan nan nan nan nan nan nan nan nan nan nan nan nan nan nan 12 15 15 22 23 19 16 13 10 10 10 8 8 10 11 11 9 8 9 10 12 12 12 12 12 10 9 9 10 10 9 10 12 13 12 10 8 nan nan nan 6 5 nan nan nan nan nan nan 8 7 5 5 5 5 5 4 5 4 4 5 5 6 8 9 11 11 10 11 11 10 10 9 10 11 10
nan nan nan nan nan nan nan nan nan nan nan nan nan nan nan nan nan nan nan nan nan nan nan 9 15 25 24 21 17 14 10 9 9 7 7 8 10 10 8 7 7 8 9 11 12 13 11 9 8 8 8 9 11 13 15 15 12 12 11 nan nan nan nan 7 nan nan nan nan nan nan 8 6 7 7 6 7 6 5 4 4 4 4 4 5 6 8 9 10 10 11 12 12 11 10 10 11 12
nan nan nan nan nan nan nan nan nan nan nan nan nan nan nan nan nan nan nan nan nan nan 4 5 10 15 18 17 17 18 15 10 9 7 8 11 10 10 9 7 7 8 8 10 12 11 13 10 8 6 7 11 13 12 12 12 11 12 11 10 nan nan nan nan nan nan nan nan nan nan nan 8 6 8 7 7 7 7 5 2 2 3 3 4 6 7 8 9 10 11 11 12 12 10 11 12 11
nan nan nan nan nan nan nan nan nan nan nan nan nan nan nan nan 24 33 33 nan nan nan nan 2 6 8 9 13 18 18 15 12 11 11 13 14 9 7 7 7 6 6 7 9 10 11 11 9 7 6 7 8 10 9 10 11 13 12 11 9 nan nan nan nan nan nan nan nan nan nan nan nan 9 8 8 7 7 7 6 3 1 1 2 3 4 6 7 8 9 10 11 11 11 10 11 12 11
nan nan nan nan nan nan nan nan nan nan nan nan nan nan nan 27 30 31 28 31 nan nan nan nan 5 7 6 8 14 17 14 12 12 12 14 11 7 6 7 8 8 7 6 7 9 9 10 9 7 5 4 5 6 8 8 10 12 13 11 11 11 nan nan nan nan nan nan nan nan nan nan nan nan 7 8 6 6 6 6 4 2 1 2 2 3 4 5 6 8 9 10 10 10 10 10 10 9
Wind_Direction
293 nan nan nan nan nan nan nan nan 291 299 312 288 301 315 314 316 250 164 174 160 132 133 140 167 138 81 93 136 231 156 25 63 nan nan 47 13 354 357 339 348 6 41 71 79 82 53 22 349 334 332 333 333 334 333 332 331 332 329 332 334 333 359 19 20 34 28 263 225 203 183 172 160 163 174 176 183 204 219 225 246 253 251 271 284 286 292 302 311 319 334 346 347 334 334 340 345
271 nan nan nan nan nan 277 323 nan 313 311 310 356 307 323 315 316 264 124 144 137 114 116 136 123 131 120 147 138 51 128 116 81 24 60 7 354 359 345 343 352 355 33 61 69 83 84 64 9 355 350 349 349 346 342 342 337 337 334 329 329 335 6 12 20 42 25 344 282 214 188 173 166 160 160 172 190 245 279 281 272 265 266 273 279 287 294 302 312 312 328 344 335 333 341 354 360
nan nan nan nan nan 280 270 282 nan 297 297 nan 318 324 308 326 330 253 144 157 129 105 53 67 129 131 123 131 95 72 69 104 314 323 352 4 345 12 347 349 356 350 12 58 62 77 83 74 32 23 7 0 358 354 352 346 340 333 331 327 333 350 4 6 15 25 15 1 341 304 207 160 166 158 174 249 285 308 311 296 299 292 280 276 281 290 293 298 306 314 317 322 327 334 346 357 359
nan nan nan nan 256 nan 267 277 291 291 299 301 298 311 323 329 315 193 190 141 123 113 100 70 74 127 95 61 41 285 347 37 60 341 351 23 20 350 350 348 351 356 24 60 65 71 82 55 43 37 19 6 5 3 356 344 338 331 327 334 337 352 357 2 19 17 12 5 356 335 338 336 95 82 274 303 301 306 309 313 310 304 294 292 289 290 298 296 305 321 307 306 325 334 350 355 355
272 273 266 nan 256 255 266 272 268 285 307 296 300 297 324 97 196 187 168 124 136 129 121 93 81 74 48 15 29 49 24 349 15 49 336 22 355 343 349 346 351 352 17 46 54 59 66 31 40 38 23 14 11 8 357 343 342 342 339 337 344 347 350 19 28 7 5 2 1 353 340 344 11 335 332 314 293 293 304 312 315 309 313 313 299 303 311 325 324 308 290 295 317 327 344 354 356
257 259 266 263 261 257 259 255 275 290 310 283 283 279 222 156 153 162 141 135 124 132 136 120 80 62 76 123 79 20 343 1 19 7 330 1 354 337 344 352 347 350 9 40 47 63 65 29 28 34 28 17 12 6 0 350 353 356 351 352 353 349 3 20 18 7 10 2 4 357 359 359 356 340 329 304 293 303 319 326 331 325 322 322 318 309 310 301 305 297 276 299 315 329 346 358 355
278 274 271 260 254 254 258 256 270 283 304 310 nan 261 215 120 134 164 142 135 133 138 157 103 296 282 188 33 265 347 334 329 3 3 344 348 349 336 344 354 344 343 1 35 48 51 48 27 24 30 24 23 10 6 2 358 8 14 6 9 357 358 19 13 6 7 8 3 359 359 2 3 356 343 328 318 319 325 336 345 348 342 335 335 327 316 304 301 302 303 309 326 333 340 353 358 0
261 268 271 nan 251 256 271 269 299 296 298 317 304 254 184 135 156 169 119 119 130 125 107 92 99 230 183 119 10 355 328 44 340 333 329 346 347 341 347 346 333 346 4 30 48 58 27 21 27 24 18 18 6 10 7 11 23 29 23 23 21 8 29 17 12 9 10 358 357 356 1 3 6 4 354 347 333 339 350 3 8 3 351 341 339 315 301 309 327 345 342 344 345 352 1 3 1
264 271 240 253 251 269 290 323 316 306 308 298 283 217 189 140 148 160 126 141 153 123 121 77 342 255 88 294 298 344 305 323 330 330 337 341 347 349 355 340 336 349 2 24 45 60 57 30 31 23 16 11 12 17 15 24 34 35 34 36 37 37 35 21 4 11 15 357 357 353 357 7 15 11 5 354 339 344 359 10 10 2 2 4 4 345 342 344 349 358 359 356 351 356 1 1 2
248 263 251 260 244 276 305 308 307 295 292 269 297 227 172 140 152 157 142 149 133 112 102 334 118 282 324 291 328 348 345 330 334 338 343 343 348 348 337 337 333 337 352 23 45 54 76 29 24 22 19 17 20 19 21 35 43 39 36 46 49 48 34 26 22 10 13 6 353 354 358 11 19 20 15 2 348 353 6 9 7 7 15 23 17 358 1 2 360 4 14 18 13 8 6 7 10
251 259 245 256 257 nan 306 297 326 302 275 264 248 190 158 145 155 161 138 149 133 109 189 265 245 292 317 353 109 350 332 341 345 345 349 350 343 328 331 337 331 337 349 7 38 63 75 78 23 26 28 25 25 22 27 40 46 40 39 42 46 37 15 30 20 25 23 20 360 359 4 13 21 27 21 14 357 3 13 10 12 10 17 28 32 30 22 15 8 11 26 34 28 15 6 9 9
232 242 256 269 nan nan 295 308 336 291 271 276 195 157 144 147 154 155 137 140 120 120 303 214 192 306 273 332 32 350 343 350 352 353 356 345 331 327 330 343 334 341 347 3 35 68 81 85 84 45 29 33 30 28 35 44 50 45 40 37 30 29 26 24 24 32 31 22 17 9 8 14 24 26 26 17 11 12 24 27 24 24 23 30 40 41 34 24 13 17 33 40 36 22 21 20 21
243 234 246 259 293 301 299 327 340 242 242 206 178 153 149 150 151 145 150 158 126 112 160 183 298 111 316 342 20 350 353 354 359 4 350 342 334 332 330 325 335 340 351 9 35 63 76 92 89 87 66 30 39 35 35 43 50 49 43 29 26 26 25 26 26 30 32 27 23 19 15 17 22 24 21 21 19 25 39 50 45 33 33 36 38 42 40 33 28 33 38 51 50 41 37 41 39
250 248 251 249 284 311 301 312 341 291 187 193 170 171 156 158 166 160 160 165 144 147 185 273 226 251 265 290 6 13 7 357 3 355 348 338 337 332 323 333 342 349 356 12 40 69 91 96 96 94 88 100 105 77 48 44 54 52 43 38 29 25 35 41 44 41 41 36 33 28 23 22 23 24 25 25 24 30 43 53 52 46 41 42 44 45 49 53 54 53 61 68 69 61 58 53 44
248 239 234 246 258 291 298 272 331 12 141 175 151 156 161 173 168 173 168 168 157 151 232 201 266 253 23 352 13 23 10 2 350 342 339 338 335 334 327 338 345 355 1 13 45 73 98 106 103 111 115 112 115 123 117 89 49 51 47 42 36 42 48 48 51 54 48 44 37 36 31 26 31 27 28 29 30 33 45 52 53 56 54 51 49 55 63 72 77 75 77 82 77 72 69 56 41
248 244 234 231 251 277 275 284 3 325 320 154 140 154 195 208 177 177 154 180 149 142 152 220 93 161 356 73 353 2 358 349 342 335 337 336 340 338 330 327 353 11 17 11 44 96 113 113 114 114 111 111 117 119 117 113 85 62 59 49 43 48 50 56 52 52 48 42 41 41 39 53 44 53 33 52 41 37 48 65 59 62 61 61 60 65 72 80 84 82 80 78 77 73 72 59 51
237 235 227 228 219 271 289 317 343 329 326 357 202 201 180 206 162 184 181 181 172 163 174 216 157 265 0 349 353 355 349 339 335 331 337 347 353 353 346 358 20 40 24 24 54 90 116 111 109 111 108 108 114 121 124 122 102 70 81 58 51 51 51 52 54 53 63 57 60 53 54 89 95 89 78 83 55 73 60 59 64 64 66 68 71 72 75 79 81 81 79 77 71 62 61 73 74
235 232 232 221 248 255 290 279 293 325 318 314 259 231 186 210 201 201 191 189 179 171 168 190 206 172 338 330 345 343 346 341 332 336 347 350 355 352 359 13 26 31 24 27 49 88 114 110 105 108 111 111 118 125 127 124 117 103 112 107 103 89 77 70 82 95 82 100 64 92 105 97 95 93 88 73 89 77 72 61 66 65 67 68 70 70 71 71 73 76 75 70 66 56 86 99 98
236 227 231 214 241 235 274 277 291 343 306 317 291 191 155 178 232 181 192 197 187 153 154 202 251 67 317 336 342 350 350 342 338 339 341 344 350 347 355 12 34 27 28 25 38 62 110 110 110 108 111 114 119 125 126 127 114 118 115 113 111 98 98 104 106 104 113 110 112 109 107 103 96 96 95 86 86 66 73 63 63 62 62 62 63 62 59 60 65 69 67 63 53 47 89 88 95
226 231 221 210 239 240 258 285 335 13 314 326 319 189 162 193 208 191 186 245 186 116 143 135 356 334 340 344 348 348 352 348 341 338 339 341 343 347 352 2 17 36 21 25 17 59 101 104 107 112 111 113 118 125 132 129 122 121 120 118 112 111 111 111 110 107 105 106 106 108 105 101 99 94 73 56 61 82 74 61 59 59 58 60 58 68 58 57 58 60 59 57 68 83 80 84 77
225 229 nan nan 245 253 248 284 343 347 329 327 327 319 247 186 198 195 248 288 99 133 127 121 350 349 344 342 350 352 350 351 nan 339 338 338 341 350 359 6 12 29 26 19 25 24 75 92 104 114 115 115 121 124 129 127 125 125 121 117 115 114 116 113 111 111 105 106 107 106 102 102 99 99 98 96 94 84 86 87 88 89 86 80 71 82 80 77 76 79 82 80 83 83 84 81 75
227 231 166 213 226 246 281 300 335 322 313 320 338 351 338 218 192 178 341 341 128 131 249 167 41 352 343 344 346 350 348 nan 343 340 341 337 340 349 357 2 11 27 1 24 25 15 54 83 97 118 116 118 120 123 126 124 121 119 115 111 113 113 112 109 109 108 106 104 104 103 105 105 103 99 93 89 87 84 82 79 76 79 80 78 79 76 75 75 75 77 78 77 79 82 84 86 78
nan 201 186 nan 223 234 287 299 308 315 317 320 345 349 300 254 253 186 195 173 180 201 199 239 39 2 343 338 343 347 346 nan nan nan 340 335 341 350 354 359 357 3 14 29 24 23 36 92 109 111 115 119 122 125 129 125 116 113 112 110 108 107 107 103 102 103 101 102 100 104 103 103 101 96 90 86 83 82 78 76 73 75 74 77 79 75 75 74 71 74 78 79 81 82 84 83 78
nan nan nan nan 228 232 281 303 309 327 322 324 315 321 322 313 281 157 195 204 181 193 201 72 6 49 349 348 nan nan nan nan nan nan 337 334 341 348 352 352 351 330 343 17 28 18 32 65 129 101 115 120 125 124 127 120 114 110 109 105 106 102 100 98 100 97 96 95 101 105 104 104 100 93 89 84 81 80 77 77 76 75 75 76 77 75 76 74 72 72 76 82 87 87 84 80 81
nan nan nan nan 251 237 265 275 298 326 317 295 302 312 328 341 338 344 259 210 145 176 153 298 322 37 20 358 nan nan nan nan nan nan 326 329 335 335 346 354 344 330 340 8 23 14 19 98 145 104 117 122 124 124 123 117 112 110 105 107 106 100 100 97 99 99 93 95 103 108 106 105 104 96 91 86 81 77 75 75 76 79 81 82 81 83 77 72 72 72 77 80 82 84 85 83 79
nan nan nan nan 247 259 268 256 289 301 288 319 300 295 319 328 345 6 227 67 77 207 198 333 357 48 26 nan nan nan nan nan nan nan 329 328 330 332 344 360 349 344 353 353 360 21 16 91 140 120 122 127 126 125 125 115 109 105 100 101 101 100 97 100 101 97 96 97 104 113 107 107 104 97 92 90 83 78 77 79 82 85 88 93 92 91 86 77 76 84 89 91 90 87 83 83 81
nan nan nan nan 258 269 273 276 273 263 309 339 296 307 332 353 6 16 86 62 68 88 101 22 15 30 6 nan nan nan nan nan nan nan 325 328 328 332 339 355 358 341 330 350 355 13 24 47 141 142 137 137 135 128 124 114 110 103 99 101 94 95 100 103 99 99 100 103 109 116 111 109 107 100 93 91 89 80 80 79 83 92 95 96 94 92 94 88 85 82 84 85 86 85 84 85 79
nan nan nan nan 265 268 272 277 276 264 261 338 291 277 309 358 63 56 34 38 59 85 68 42 11 29 354 nan nan nan nan nan nan nan nan 335 335 329 334 1 3 340 342 352 354 351 14 39 140 146 146 144 136 131 126 118 108 100 99 98 90 97 105 103 101 98 99 106 117 116 115 112 110 100 92 91 86 79 77 77 84 92 93 95 95 94 94 92 87 87 86 89 92 90 86 80 79
nan nan nan nan 265 266 292 295 289 288 281 293 281 271 287 358 46 27 14 14 44 45 44 25 3 12 353 352 326 nan nan nan nan nan nan 338 339 329 327 355 4 350 282 337 336 342 7 46 143 146 153 148 138 132 127 122 110 102 101 96 100 102 104 106 104 102 102 110 116 114 116 115 110 98 89 83 81 75 75 77 85 92 97 99 99 98 99 100 100 93 90 85 83 82 79 80 74
nan nan nan nan nan 265 298 260 279 276 287 302 297 267 17 26 27 339 354 2 12 5 19 14 353 350 347 347 335 335 nan nan nan nan nan nan 339 331 321 339 357 3 280 275 322 352 23 107 153 152 151 148 140 144 137 129 114 107 106 105 108 104 105 104 104 106 107 112 114 115 115 113 108 95 84 83 81 73 70 71 82 94 97 104 109 111 110 105 101 99 97 102 99 95 93 76 69
nan nan nan nan nan 240 281 274 281 258 291 314 255 263 320 36 11 325 346 352 359 349 349 1 350 343 340 336 336 333 nan nan nan nan nan nan nan nan 322 324 343 312 229 299 336 340 19 107 154 147 146 150 148 148 138 131 117 116 117 114 117 100 101 103 103 106 110 110 115 113 112 112 108 97 84 74 75 67 64 75 87 90 98 105 113 115 116 115 111 110 108 110 105 102 93 91 77
nan nan nan nan nan nan 297 290 301 269 247 313 238 241 317 6 356 334 333 341 352 337 336 342 339 333 333 321 328 327 337 344 nan nan nan nan nan 323 324 324 327 307 318 319 316 324 22 108 145 140 142 151 151 147 146 139 117 131 124 129 117 102 101 105 102 102 106 113 111 107 105 108 109 100 81 69 62 66 60 74 83 92 96 102 107 115 116 116 115 116 113 104 105 104 100 98 92
nan nan nan nan nan nan 272 314 332 300 290 349 295 229 222 204 347 337 339 344 348 329 323 335 329 325 326 317 320 318 327 348 360 354 nan nan nan 319 319 324 326 322 305 305 311 329 20 98 139 137 137 149 154 149 154 153 139 139 126 142 117 110 109 107 110 107 109 111 109 105 102 100 102 94 83 75 63 66 68 73 77 82 83 87 99 106 110 110 113 113 114 109 99 99 103 98 99
nan nan nan nan nan nan nan 294 322 293 299 335 76 203 103 210 319 327 336 347 335 320 308 324 323 318 322 315 316 327 331 345 358 359 nan nan nan nan 318 326 325 315 297 311 324 333 352 120 144 147 156 157 159 157 155 156 148 139 131 150 137 120 113 112 106 104 103 106 109 104 102 100 95 94 87 80 69 71 76 75 79 76 80 87 95 100 102 110 113 108 108 108 105 101 103 101 102
nan nan nan nan nan nan nan 274 310 291 307 319 83 121 103 139 326 332 334 339 330 318 306 313 320 317 319 316 315 326 332 338 351 5 333 nan nan nan 315 324 318 306 274 309 328 297 337 138 151 154 167 164 165 161 156 163 158 146 144 151 147 135 129 116 105 103 107 111 103 99 104 98 92 93 91 91 78 85 89 88 83 78 78 82 91 101 106 113 119 115 103 104 108 100 93 95 97
nan nan nan nan nan nan nan nan 278 309 303 296 55 81 61 43 1 353 347 344 338 322 300 286 304 310 313 315 316 319 328 337 335 3 352 nan nan nan nan 316 311 300 280 295 318 276 343 149 152 160 165 166 169 164 159 169 167 147 142 147 157 143 126 126 111 102 115 111 104 94 97 94 95 86 105 115 108 103 103 94 87 84 80 80 85 93 101 111 107 109 104 103 112 112 103 95 94
nan nan nan nan nan nan nan nan 265 320 296 330 12 53 35 33 11 3 352 341 333 315 308 292 295 303 310 317 318 321 329 331 327 356 353 nan nan nan nan nan nan 306 289 301 293 288 325 152 155 158 163 166 168 166 158 168 171 156 151 140 138 139 129 128 111 112 105 100 80 78 84 95 104 110 128 123 109 109 105 101 95 90 84 79 79 82 89 98 99 98 101 103 106 110 105 101 93
nan nan nan nan nan nan nan nan 271 309 288 268 319 329 35 31 5 349 340 333 338 327 313 306 299 298 305 325 322 320 322 306 328 347 341 nan 315 nan nan nan nan nan nan 293 285 288 232 165 158 166 168 166 163 166 160 163 170 158 151 nan nan nan 137 124 112 110 96 97 84 82 90 106 118 129 132 123 120 117 110 102 95 82 78 73 76 79 83 89 99 103 106 105 102 101 102 98 96
nan nan nan nan nan nan nan nan nan 305 286 292 342 334 360 6 340 333 340 344 332 328 325 324 310 300 303 323 322 313 311 326 339 347 346 317 nan nan nan nan nan nan nan nan nan 278 228 168 169 173 170 169 164 167 166 160 168 159 149 nan nan nan 140 104 102 100 103 94 91 95 107 113 123 134 132 126 123 123 115 106 93 83 76 71 73 74 77 81 85 92 100 95 99 102 102 102 95
nan nan nan nan nan nan nan nan nan 236 232 238 312 259 231 248 295 326 341 328 316 326 319 312 308 313 319 330 321 317 324 328 337 343 351 327 nan nan nan nan nan nan nan nan nan 295 224 175 177 175 174 174 171 169 162 160 162 154 141 nan nan 138 136 120 107 113 110 111 92 105 123 125 126 132 129 129 129 124 115 102 99 92 82 80 72 71 75 77 83 89 90 94 94 100 106 105 97
nan nan nan nan nan nan nan nan nan nan nan nan 233 227 230 242 277 307 316 304 296 314 314 307 307 305 311 309 319 328 330 330 330 336 345 336 320 nan nan nan nan nan nan nan nan 280 216 206 186 178 179 179 176 175 164 168 172 162 143 nan nan 144 176 174 130 121 98 94 105 116 115 131 130 129 126 126 125 114 112 106 98 96 94 87 83 76 74 74 79 82 80 86 88 88 98 100 97
nan nan nan nan nan nan nan nan nan nan nan 245 263 229 220 227 255 309 288 286 307 307 319 322 317 308 287 297 319 322 327 328 330 333 343 344 319 312 nan nan nan nan nan nan nan 276 257 216 196 181 183 184 180 178 173 174 164 161 152 nan nan 143 155 145 74 55 92 100 90 105 131 126 123 128 128 123 121 119 109 103 103 96 94 81 74 73 77 82 77 77 79 77 81 85 76 83 87
nan nan nan nan nan nan nan nan nan nan 230 220 213 249 228 225 219 238 272 296 305 292 326 326 322 322 307 299 299 306 323 329 332 325 324 333 323 320 330 nan nan nan nan nan nan 273 272 247 211 190 187 187 186 182 177 177 170 168 161 143 nan nan 129 126 120 104 88 111 130 115 123 130 121 117 122 122 123 118 113 107 101 93 87 80 80 76 70 70 72 74 75 73 73 74 74 68 56
nan nan nan nan nan nan nan nan nan nan nan 246 nan 230 242 234 216 220 239 272 289 296 336 343 343 337 327 316 310 305 321 331 330 332 325 327 329 323 332 339 332 nan nan nan nan nan 278 266 235 201 192 193 188 191 179 172 172 178 174 154 nan nan nan 131 124 119 125 140 137 118 131 125 120 121 121 120 116 112 108 104 106 94 75 75 74 66 64 69 74 80 69 65 65 60 57 44 53
nan nan nan nan nan nan nan nan nan nan nan nan nan nan nan 225 212 240 253 257 262 350 3 5 1 352 342 334 325 312 316 328 333 335 337 320 318 311 312 321 326 329 nan nan nan nan 267 260 246 213 201 201 195 201 189 173 178 181 178 152 130 nan nan nan 151 148 148 149 142 141 136 129 124 125 128 117 116 111 109 106 113 92 71 69 69 68 73 71 64 66 69 63 62 66 61 63 47
nan nan nan nan nan nan nan nan nan nan nan nan nan nan nan nan nan 238 248 263 294 48 30 18 8 354 346 343 336 320 298 299 323 333 332 320 305 296 298 298 314 332 335 nan 291 273 269 257 254 237 212 203 205 208 198 183 182 187 180 nan 116 nan 144 nan nan 155 155 164 154 149 148 147 137 137 134 140 139 129 117 113 95 74 67 61 67 69 74 76 75 73 71 61 62 68 77 64 59
nan nan nan nan nan nan nan nan nan nan nan nan nan nan nan nan nan 252 256 280 338 30 59 50 17 358 346 344 340 329 313 305 294 305 315 310 299 292 288 305 319 322 326 327 306 288 277 270 263 252 228 211 211 217 211 190 182 189 172 nan 117 nan nan nan nan nan 182 175 170 163 165 148 149 144 149 153 148 133 121 108 87 73 75 69 69 72 71 69 70 72 73 72 69 66 71 73 84
nan nan nan nan nan nan nan nan nan nan nan nan nan nan nan nan nan 245 277 310 354 354 340 337 7 11 3 348 342 339 325 306 296 295 304 300 287 296 302 312 319 325 332 339 325 297 286 276 266 258 235 223 215 220 220 201 185 182 175 nan nan nan nan nan nan 163 nan 166 164 167 171 179 152 162 162 164 156 144 130 118 106 90 75 73 72 71 71 71 73 76 77 73 73 71 76 81 84
nan nan nan nan nan nan nan nan nan nan nan nan nan nan nan nan nan nan 276 285 320 340 342 334 348 4 6 5 355 331 313 298 295 298 299 297 298 305 316 316 318 324 335 340 329 309 291 279 278 271 252 235 227 226 226 215 195 187 179 nan nan nan nan nan nan nan nan nan 180 191 199 179 168 173 161 160 157 154 161 130 114 100 96 87 85 79 79 77 78 76 76 77 76 72 75 81 82
nan nan nan nan nan nan nan nan nan nan nan nan nan nan nan nan nan nan 282 309 316 322 317 310 334 350 353 359 348 322 309 302 296 294 295 300 300 303 313 315 318 321 327 328 323 306 282 271 275 277 264 242 232 229 227 221 203 192 188 nan nan 165 nan nan nan nan nan nan nan 207 215 192 183 156 173 156 161 166 171 142 127 113 109 100 95 87 86 85 83 78 78 78 77 79 83 81 81
nan nan nan nan nan nan nan nan nan nan nan nan nan nan nan nan nan nan 279 295 301 303 310 291 301 320 332 328 318 318 310 304 287 284 296 304 305 305 306 317 320 320 319 321 315 302 284 268 269 272 259 241 237 236 228 230 215 201 nan nan nan 172 nan nan nan nan nan nan nan 193 182 199 200 174 174 168 181 180 167 158 131 116 105 97 96 97 96 94 87 85 83 80 82 81 79 77 82
nan nan nan nan nan nan nan nan nan nan nan nan nan nan nan nan nan nan nan 267 279 285 294 291 286 283 277 278 307 320 325 314 296 286 288 300 302 301 295 307 322 319 321 324 325 308 294 272 263 265 262 247 234 236 230 235 230 215 nan nan nan 176 179 nan nan nan nan nan nan 196 192 194 191 199 182 193 180 190 174 146 130 107 99 93 94 97 102 101 99 90 88 87 86 93 82 78 82
nan nan nan nan nan nan nan nan nan nan nan nan nan nan nan nan nan nan nan nan nan 266 276 288 298 291 284 296 310 315 315 321 313 299 284 291 290 298 299 304 319 324 323 332 333 320 306 279 258 252 251 241 229 226 232 231 233 228 nan nan nan nan 189 nan nan nan nan nan nan 192 195 171 196 208 203 194 195 185 174 152 123 106 94 93 93 100 105 109 107 104 96 92 86 87 79 75 81
nan nan nan nan nan nan nan nan nan nan nan nan nan nan nan nan nan nan nan nan nan nan 304 298 292 281 291 300 302 307 321 337 335 314 288 287 290 300 301 301 320 330 330 330 329 319 307 290 275 260 249 253 235 222 222 223 228 231 224 nan nan nan 197 193 nan nan nan nan nan nan 190 193 189 207 216 208 205 195 180 150 129 106 95 98 96 106 113 113 113 110 105 97 91 86 75 78 78
nan nan nan nan nan nan nan nan nan nan nan nan nan nan nan nan nan nan nan nan nan nan nan 297 266 268 287 297 300 293 294 299 308 311 298 289 285 289 299 314 318 324 320 319 315 315 312 304 296 283 269 258 249 224 216 215 218 217 222 nan nan nan nan 201 nan nan nan nan nan nan 200 194 197 207 218 219 220 208 195 166 142 114 103 92 107 109 116 116 114 110 110 101 100 91 82 78 76
nan nan nan nan nan nan nan nan nan nan nan nan nan nan nan nan nan nan nan nan nan nan 289 325 286 286 289 287 284 277 268 281 310 316 328 325 307 297 305 302 308 317 308 303 312 314 326 324 319 304 271 252 250 246 234 226 220 216 219 225 nan nan nan nan nan nan nan nan nan nan nan 208 206 213 219 227 228 226 215 190 153 110 97 101 105 113 115 115 112 109 108 102 97 93 88 83 84
nan nan nan nan nan nan nan nan nan nan nan nan nan nan nan nan 183 185 185 nan nan nan nan 329 290 305 312 287 277 278 276 268 278 295 316 324 309 287 289 280 276 284 275 279 298 319 323 320 333 330 305 283 276 269 255 237 228 220 220 229 nan nan nan nan nan nan nan nan nan nan nan nan 214 217 223 229 231 231 232 221 210 108 70 88 102 109 119 120 115 112 112 106 102 92 84 84 84
nan nan nan nan nan nan nan nan nan nan nan nan nan nan nan 194 200 194 193 195 nan nan nan nan 333 322 327 282 274 277 273 270 273 288 302 311 310 278 259 254 252 263 269 284 296 302 311 326 337 345 330 304 291 270 256 246 237 230 224 223 229 nan nan nan nan nan nan nan nan nan nan nan nan 222 231 239 245 237 237 245 250 329 17 56 86 101 113 122 113 114 113 115 104 93 84 80 79